Home > Weather > Ghent > Past weeks

Flag for Belgium Past Weather in Ghent, Belgium — Yesterday and Last 2 Weeks

Now
75 °F

Fog.


Feels Like: 78 °F
Forecast: 54 / 71 °F
Wind: 10 mph from Northwest

Location: Chievres

Current Time: Aug 28, 2016 at 6:38:14 PM

Latest Report: Aug 28, 2016 at 5:55 PM


Visibility: 2 mi

Pressure: 29.98 "Hg

Humidity: 50%

Dew Point: 55 °F

Location of GhentLocation

Past Weather in Ghent — Graph

°F

Ghent Temperature Yesterday

Maximum temperature yesterday: 90 °F (at 5:55 PM)
Minimum temperature yesterday: 63 °F (at 6:25 AM)
Average temperature yesterday: 74 °F

High & Low Weather Summary for the Past Weeks

 TemperatureHumidityPressure
High91 °F (Aug 24, 4:25 PM)100% (Aug 14, 2:55 AM)30.30 "Hg (Aug 14, 2:55 AM)
Low52 °F (Aug 16, 5:55 AM)24% (Aug 24, 5:25 PM)29.77 "Hg (Aug 19, 2:25 PM)
Average68 °F74%30.04 "Hg
* Reported Aug 13 5:25 PM — Aug 28 5:25 PM, Ghent, Weather by CustomWeather, © 2016

Note: Actual official high and low records may vary slightly from our data, if they occured in-between our weather recording intervals... More about our weather records

Advertising

Ghent Weather History for the Previous 24 Hours

Scroll right to see more
 ConditionsComfort  
Time TempWeatherWind HumidityBarometerVisibility
5:25 PM
Sun, Aug 28
73 °FFog.13 mph53%30.01 "Hg1 mi
4:55 PM75 °FFog.12 mph50%30.01 "Hg1 mi
3:55 PM75 °FFog.13 mph50%30.01 "Hg1 mi
3:25 PM75 °FFog.14 mph50%29.98 "Hg1 mi
3:03 PM75 °FFog.13 mph54%29.98 "Hg1 mi
2:55 PM75 °FFog.13 mph50%30.01 "Hg2 mi
1:55 PM75 °FFog.14 mph54%29.98 "Hg1 mi
1:03 PM72 °FFog.12 mph65%29.98 "Hg1 mi
12:55 PM73 °FFog.13 mph61%29.98 "Hg2 mi
12:25 PM72 °FFog.13 mph65%29.98 "Hg1 mi
11:55 AM72 °FFog.12 mph61%29.98 "Hg1 mi
11:25 AM72 °FFog.14 mph61%29.98 "Hg1 mi
10:55 AM72 °FFog.14 mph61%29.98 "Hg1 mi
9:55 AM70 °FFog.12 mph78%29.95 "Hg1 mi
9:25 AM70 °FFog.12 mph78%29.95 "Hg1 mi
8:55 AM70 °FPassing clouds.9 mph83%29.92 "Hg3 mi
8:25 AM70 °FScattered clouds.9 mph83%29.92 "Hg3 mi
7:55 AM70 °FMild.13 mph78%29.89 "HgN/A
6:55 AM68 °FMild.7 mph83%29.89 "HgN/A
6:25 AM70 °FMild.7 mph78%29.86 "HgN/A
5:55 AM70 °FMild.6 mph78%29.86 "HgN/A
5:25 AM66 °FMild.1 mph88%29.86 "HgN/A
4:55 AM66 °FMild.5 mph88%29.89 "HgN/A
3:55 AM64 °FMild.1 mph94%29.89 "HgN/A
3:25 AM66 °FMild.2 mph88%29.89 "HgN/A
2:55 AM66 °FMild.5 mph88%29.92 "HgN/A
2:25 AM68 °FMild.2 mph88%29.92 "HgN/A
1:55 AM68 °FMild.5 mph88%29.92 "HgN/A
1:25 AM68 °FMild.2 mph88%29.92 "HgN/A
12:55 AM70 °FMild.3 mph83%29.92 "HgN/A
12:25 AM70 °FMild.3 mph83%29.95 "HgN/A
11:55 PM
Sat, Aug 27
72 °FMild.2 mph78%29.95 "HgN/A
11:25 PM73 °FMild.3 mph74%29.95 "HgN/A
10:55 PM77 °FWarm.7 mph61%29.92 "HgN/A
10:25 PM75 °FPassing clouds.6 mph69%29.92 "HgN/A
9:55 PM75 °FPassing clouds.6 mph69%29.92 "HgN/A
9:25 PM77 °FPassing clouds.6 mph65%29.92 "HgN/A
8:55 PM77 °FScattered clouds.6 mph65%29.92 "HgN/A
8:25 PM81 °FPartly sunny.5 mph54%29.92 "HgN/A
7:55 PM82 °FPartly sunny.3 mph55%29.92 "HgN/A
6:55 PM88 °FScattered clouds.7 mph38%29.92 "HgN/A
6:25 PM88 °FScattered clouds.8 mph40%29.92 "HgN/A
Weather by CustomWeather, © 2016

See weather overviewHow to use our weather pages